logo tempoitalia

Diretta Meteo Alva, Stati Uniti (USA)lunedì 31 agosto ore 00:15

Mappa
Sereno 32 °C Sereno 24 Ore: T.min 24 T.max 41
Ponente Sud Km/h 27.8 Punto di rugiada: 14 °C Umidità: 33% Visibilità: 10 Km
Il sole sorge alle: 07:05 Il sole tramonta alle: 20:04
31 Agosto 2026 00:15 tempo osservato: Sereno Sereno 32 33 1011 vento: Nord S 27.8
30 Agosto 2026 23:55 tempo osservato: Sereno Sereno 32 33 1011 vento: Nord S 25.9
30 Agosto 2026 23:35 tempo osservato: Sereno Sereno 32 33 1011 vento: Nord S 25.9
30 Agosto 2026 23:15 tempo osservato: Sereno Sereno 33 31 1011 vento: Nord S 25.9
30 Agosto 2026 22:55 tempo osservato: Sereno Sereno 33 31 1011 vento: Nord S 29.6
30 Agosto 2026 22:35 tempo osservato: Sereno Sereno 33 33 1011 vento: Nord S 25.9
30 Agosto 2026 22:15 tempo osservato: Sereno Sereno 33 33 1011 vento: Nord S 25.9
30 Agosto 2026 21:55 tempo osservato: Sereno Sereno 33 33 1011 vento: Nord S 24
30 Agosto 2026 21:35 tempo osservato: Sereno Sereno 33 33 1010 vento: Nord S 22.2
30 Agosto 2026 21:15 tempo osservato: Sereno Sereno 34 32 1010 vento: Nord S 22.2
30 Agosto 2026 20:55 tempo osservato: Sereno Sereno 35 30 1010 vento: Nord S 20.3
30 Agosto 2026 20:35 tempo osservato: Sereno Sereno 35 30 1010 vento: Nord S 22.2
30 Agosto 2026 20:15 tempo osservato: Sereno Sereno 36 30 1009 vento: Nord S 22.2
30 Agosto 2026 19:55 tempo osservato: Sereno Sereno 37 28 1009 vento: Nord S 22.2
30 Agosto 2026 19:35 tempo osservato: Sereno Sereno 38 27 1009 vento: Nord S 22.2
30 Agosto 2026 19:15 tempo osservato: Sereno Sereno 39 24 1009 vento: Nord S/SO 27.8
30 Agosto 2026 18:55 tempo osservato: Sereno Sereno 39 26 1009 vento: Nord S/SO 25.9
30 Agosto 2026 18:35 tempo osservato: Sereno Sereno 40 24 1009 vento: Nord S/SO 35.2
30 Agosto 2026 18:15 tempo osservato: Sereno Sereno 40 24 1009 vento: Nord S/SO 35.2
30 Agosto 2026 17:55 tempo osservato: Sereno Sereno 40 24 1009 vento: Nord S/SO 37
30 Agosto 2026 17:35 tempo osservato: Sereno Sereno 40 24 1009 vento: Nord S/SO 27.8
30 Agosto 2026 17:15 tempo osservato: Sereno Sereno 40 23 1009 vento: Nord S 35.2
30 Agosto 2026 16:55 tempo osservato: Sereno Sereno 40 24 1009 vento: Nord SO 27.8
30 Agosto 2026 16:35 tempo osservato: Sereno Sereno 41 21 1009 vento: Nord SO 27.8
30 Agosto 2026 16:15 tempo osservato: Sereno Sereno 41 21 1009 vento: Nord S/SO 33.3
30 Agosto 2026 15:55 tempo osservato: Sereno Sereno 40 24 1010 vento: Nord S/SO 29.6
30 Agosto 2026 15:35 tempo osservato: Sereno Sereno 40 24 1010 vento: Nord S/SO 24
30 Agosto 2026 15:15 tempo osservato: Sereno Sereno 41 23 1010 vento: Nord S/SO 31.5
30 Agosto 2026 14:55 tempo osservato: Sereno Sereno 40 24 1010 vento: Nord S/SO 25.9
30 Agosto 2026 14:35 tempo osservato: Sereno Sereno 40 24 1011 vento: Nord S/SO 37
30 Agosto 2026 14:15 tempo osservato: Sereno Sereno 40 23 1011 vento: Nord SO 35.2
30 Agosto 2026 13:55 tempo osservato: Sereno Sereno 40 24 1011 vento: Nord S/SO 29.6
30 Agosto 2026 13:35 tempo osservato: Sereno Sereno 40 26 1011 vento: Nord S/SO 35.2
30 Agosto 2026 13:15 tempo osservato: Sereno Sereno 39 27 1011 vento: Nord S 27.8
30 Agosto 2026 12:55 tempo osservato: Sereno Sereno 39 27 1011 vento: Nord S 35.2
30 Agosto 2026 12:35 tempo osservato: Sereno Sereno 38 29 1012 vento: Nord S/SO 33.3
30 Agosto 2026 12:15 tempo osservato: Sereno Sereno 38 29 1012 vento: Nord S/SO 37
30 Agosto 2026 11:55 tempo osservato: Sereno Sereno 37 30 1012 vento: Nord S 35.2
30 Agosto 2026 11:35 tempo osservato: Sereno Sereno 36 32 1012 vento: Nord S/SO 31.5
30 Agosto 2026 11:15 tempo osservato: Sereno Sereno 35 34 1012 vento: Nord S/SO 31.5
30 Agosto 2026 10:55 tempo osservato: Sereno Sereno 35 34 1012 vento: Nord S/SO 33.3
30 Agosto 2026 10:35 tempo osservato: Sereno Sereno 34 36 1012 vento: Nord S/SO 35.2
30 Agosto 2026 10:15 tempo osservato: Sereno Sereno 33 41 1012 vento: Nord S/SO 33.3
30 Agosto 2026 09:55 tempo osservato: Sereno Sereno 32 40 1012 vento: Nord S/SO 38.8
30 Agosto 2026 09:35 tempo osservato: Sereno Sereno 32 40 1012 vento: Nord S/SO 38.8
30 Agosto 2026 09:15 tempo osservato: Sereno Sereno 31 43 1012 vento: Nord S/SO 33.3
30 Agosto 2026 08:55 tempo osservato: Sereno Sereno 29 48 1013 vento: Nord S 31.5
30 Agosto 2026 08:35 tempo osservato: Sereno Sereno 28 48 1013 vento: Nord S 24
30 Agosto 2026 08:15 tempo osservato: Sereno Sereno 27 50 1013 vento: Nord S 20.3
30 Agosto 2026 07:55 tempo osservato: Sereno Sereno 25 57 1013 vento: Nord S 20.3
30 Agosto 2026 07:35 tempo osservato: Sereno Sereno 25 53 1012 vento: Nord S 20.3
30 Agosto 2026 07:15 tempo osservato: Sereno Sereno 24 57 1012 vento: Nord S 16.7
30 Agosto 2026 06:55 tempo osservato: Sereno Sereno 26 50 1012 vento: Nord S 18.5
30 Agosto 2026 06:35 tempo osservato: Sereno Sereno 27 47 1012 vento: Nord S 22.2
30 Agosto 2026 06:15 tempo osservato: Sereno Sereno 26 50 1012 vento: Nord S 18.5
30 Agosto 2026 05:55 tempo osservato: Sereno Sereno 26 50 1012 vento: Nord S 18.5
30 Agosto 2026 05:35 tempo osservato: Sereno Sereno 27 47 1012 vento: Nord S 16.7
30 Agosto 2026 05:15 tempo osservato: Sereno Sereno 27 47 1012 vento: Nord S 18.5
30 Agosto 2026 04:55 tempo osservato: Sereno Sereno 27 44 1012 vento: Nord S 18.5
30 Agosto 2026 04:35 tempo osservato: Sereno Sereno 28 42 1012 vento: Nord S 20.3
30 Agosto 2026 04:15 tempo osservato: Sereno Sereno 28 45 1012 vento: Nord S 18.5
30 Agosto 2026 03:55 tempo osservato: Sereno Sereno 29 42 1012 vento: Nord S 20.3
30 Agosto 2026 03:35 tempo osservato: Sereno Sereno 29 42 1012 vento: Nord S 22.2
30 Agosto 2026 03:15 tempo osservato: Sereno Sereno 29 39 1012 vento: Nord S 24
30 Agosto 2026 02:55 tempo osservato: Sereno Sereno 29 39 1012 vento: Nord S 22.2
30 Agosto 2026 02:35 tempo osservato: Sereno Sereno 28 42 1012 vento: Nord S 22.2
30 Agosto 2026 02:15 tempo osservato: Sereno Sereno 28 42 1012 vento: Nord S 22.2
30 Agosto 2026 01:55 tempo osservato: Sereno Sereno 28 42 1012 vento: Nord S 24
30 Agosto 2026 01:35 tempo osservato: Sereno Sereno 28 42 1012 vento: Nord S 25.9
30 Agosto 2026 01:15 tempo osservato: Sereno Sereno 29 37 1012 vento: Nord S 25.9
30 Agosto 2026 00:55 tempo osservato: Sereno Sereno 29 37 1012 vento: Nord S 24
30 Agosto 2026 00:35 tempo osservato: Sereno Sereno 29 37 1012 vento: Nord S 22.2